�������l�o���
Date,Time,MP-1(��Sv/h),MP-2(��Sv/h),MP-3(��Sv/h),MP-4(��Sv/h),MP-5(��Sv/h),MP-6(��Sv/h),MP-7(��Sv/h),MP-8(��Sv/h),����,����(m/s),���J
2024/02/29,00:00,0.501,0.762,0.479,0.951,0.683,0.308,0.549,0.516,���k��,2.0,��
2024/02/29,00:10,0.502,0.762,0.478,0.949,0.682,0.307,0.550,0.516,��,3.3,��
2024/02/29,00:20,0.501,0.762,0.478,0.949,0.684,0.308,0.552,0.516,���k��,2.0,��
2024/02/29,00:30,0.501,0.763,0.477,0.951,0.683,0.307,0.550,0.515,���k��,3.7,��
2024/02/29,00:40,0.500,0.762,0.479,0.952,0.684,0.308,0.549,0.515,���k��,3.0,��
2024/02/29,00:50,0.503,0.762,0.478,0.950,0.683,0.307,0.549,0.517,���k��,2.6,��
2024/02/29,01:00,0.502,0.763,0.480,0.950,0.683,0.308,0.550,0.514,���k��,2.3,��
2024/02/29,01:10,0.503,0.762,0.478,0.951,0.681,0.307,0.550,0.517,�k��,2.8,��
2024/02/29,01:20,0.502,0.760,0.479,0.951,0.683,0.308,0.550,0.518,�k��,2.9,��
2024/02/29,01:30,0.501,0.761,0.480,0.951,0.682,0.308,0.549,0.516,�k��,3.0,��
2024/02/29,01:40,0.502,0.763,0.478,0.952,0.683,0.308,0.550,0.516,���k��,4.2,��
2024/02/29,01:50,0.502,0.763,0.479,0.948,0.683,0.308,0.549,0.516,���k��,4.0,��
2024/02/29,02:00,0.501,0.760,0.478,0.949,0.682,0.307,0.548,0.516,�k��,4.0,��
2024/02/29,02:10,0.501,0.761,0.478,0.950,0.684,0.307,0.550,0.516,�k��,4.2,��
2024/02/29,02:20,0.502,0.763,0.480,0.951,0.683,0.307,0.549,0.516,�k��,4.3,��
2024/02/29,02:30,0.502,0.761,0.480,0.951,0.682,0.308,0.550,0.514,�k��,4.0,��
2024/02/29,02:40,0.501,0.763,0.480,0.950,0.683,0.309,0.550,0.518,�k��,3.5,��
2024/02/29,02:50,0.502,0.762,0.478,0.950,0.683,0.308,0.549,0.517,���k��,3.6,��
2024/02/29,03:00,0.502,0.762,0.479,0.949,0.685,0.308,0.550,0.515,���k��,4.2,��
2024/02/29,03:10,0.502,0.760,0.478,0.950,0.683,0.308,0.550,0.517,���k��,4.7,��
2024/02/29,03:20,0.501,0.763,0.480,0.951,0.684,0.308,0.550,0.515,�k��,5.1,��
2024/02/29,03:30,0.503,0.761,0.480,0.950,0.682,0.307,0.548,0.516,�k��,5.0,��
2024/02/29,03:40,0.501,0.761,0.479,0.952,0.683,0.307,0.549,0.516,�k��,4.6,��
2024/02/29,03:50,0.502,0.761,0.479,0.950,0.683,0.307,0.548,0.517,���k��,4.6,��
2024/02/29,04:00,0.501,0.761,0.478,0.953,0.684,0.307,0.549,0.514,�k��,2.6,��
2024/02/29,04:10,0.503,0.761,0.479,0.950,0.683,0.306,0.549,0.515,�k��,5.0,��
2024/02/29,04:20,0.502,0.762,0.480,0.952,0.683,0.306,0.550,0.515,�k��,4.8,��
2024/02/29,04:30,0.502,0.762,0.479,0.949,0.685,0.307,0.549,0.516,�k��,4.4,��
2024/02/29,04:40,0.501,0.761,0.478,0.949,0.682,0.308,0.549,0.516,�k��,4.5,��
2024/02/29,04:50,0.501,0.762,0.478,0.952,0.682,0.308,0.550,0.516,�k��,3.3,��
2024/02/29,05:00,0.499,0.761,0.479,0.950,0.682,0.308,0.550,0.515,���k��,4.0,��
2024/02/29,05:10,0.503,0.762,0.478,0.948,0.683,0.307,0.550,0.517,���k��,4.5,��
2024/02/29,05:20,0.502,0.763,0.479,0.950,0.684,0.306,0.549,0.516,���k��,5.7,��
2024/02/29,05:30,0.501,0.762,0.477,0.951,0.685,0.308,0.549,0.515,���k��,7.0,��
2024/02/29,05:40,0.502,0.762,0.480,0.950,0.682,0.307,0.550,0.516,���k��,6.5,��
2024/02/29,05:50,0.502,0.761,0.479,0.949,0.682,0.308,0.549,0.516,���k��,4.4,��
2024/02/29,06:00,0.503,0.760,0.480,0.952,0.683,0.308,0.549,0.516,���k��,4.0,��
2024/02/29,06:10,0.502,0.761,0.479,0.950,0.684,0.306,0.550,0.516,�k��,4.1,��
2024/02/29,06:20,0.502,0.762,0.477,0.952,0.683,0.306,0.550,0.516,���k��,4.6,��
2024/02/29,06:30,0.500,0.761,0.479,0.949,0.682,0.307,0.549,0.515,���k��,5.7,��
2024/02/29,06:40,0.500,0.762,0.478,0.950,0.682,0.308,0.549,0.516,���k��,6.8,��
2024/02/29,06:50,0.503,0.762,0.480,0.951,0.682,0.307,0.549,0.515,���k��,4.8,��
2024/02/29,07:00,0.502,0.761,0.479,0.952,0.683,0.308,0.549,0.516,�k��,5.0,��
2024/02/29,07:10,0.501,0.761,0.479,0.950,0.682,0.308,0.550,0.516,���k��,4.5,��
2024/02/29,07:20,0.504,0.762,0.479,0.952,0.682,0.307,0.550,0.516,�k��,5.5,��
2024/02/29,07:30,0.504,0.761,0.479,0.951,0.684,0.308,0.551,0.517,�k��,4.7,��
2024/02/29,07:40,0.501,0.760,0.477,0.953,0.682,0.308,0.551,0.516,�k��,4.9,��
2024/02/29,07:50,0.502,0.762,0.479,0.950,0.683,0.308,0.551,0.516,�k��,5.4,��
2024/02/29,08:00,0.503,0.762,0.477,0.952,0.683,0.308,0.551,0.514,���k��,4.9,��
2024/02/29,08:10,0.500,0.762,0.479,0.951,0.682,0.307,0.550,0.516,���k��,5.4,��
2024/02/29,08:20,0.502,0.760,0.479,0.949,0.681,0.308,0.550,0.517,�k��,3.5,��
2024/02/29,08:30,0.503,0.761,0.479,0.951,0.683,0.307,0.551,0.516,�k��,2.9,��
2024/02/29,08:40,0.502,0.762,0.479,0.951,0.682,0.308,0.553,0.517,���k��,3.9,��
2024/02/29,08:50,0.503,0.761,0.479,0.953,0.684,0.308,0.552,0.516,���k��,2.9,��
2024/02/29,09:00,0.503,0.762,0.478,0.952,0.684,0.307,0.551,0.516,�k��,3.7,��
2024/02/29,09:10,0.503,0.765,0.479,0.952,0.685,0.308,0.552,0.517,�k��,3.1,��
2024/02/29,09:20,0.503,0.763,0.479,0.951,0.684,0.308,0.550,0.517,�k��,3.7,��
2024/02/29,09:30,0.504,0.763,0.481,0.952,0.683,0.306,0.551,0.517,�k�k��,3.4,��
2024/02/29,09:40,0.503,0.761,0.479,0.951,0.684,0.307,0.549,0.517,�k��,4.3,��
2024/02/29,09:50,0.503,0.760,0.481,0.952,0.684,0.306,0.550,0.517,�k��,4.1,��
2024/02/29,10:00,0.503,0.762,0.480,0.952,0.684,0.308,0.551,0.518,�k��,4.4,��
2024/02/29,10:10,0.504,0.762,0.480,0.952,0.685,0.309,0.550,0.518,�k��,3.0,��
2024/02/29,10:20,0.504,0.761,0.480,0.953,0.684,0.309,0.549,0.520,�k,5.0,��
2024/02/29,10:30,0.502,0.761,0.479,0.953,0.685,0.308,0.549,0.517,�k�k��,5.8,��
2024/02/29,10:40,0.504,0.762,0.480,0.952,0.685,0.308,0.549,0.517,�k�k��,4.9,��
2024/02/29,10:50,0.503,0.761,0.479,0.951,0.684,0.308,0.550,0.516,�k�k��,6.0,��
2024/02/29,11:00,0.504,0.762,0.480,0.951,0.686,0.308,0.548,0.516,�k�k��,5.3,��
2024/02/29,11:10,0.503,0.763,0.479,0.954,0.685,0.310,0.551,0.516,�k�k��,4.9,��
2024/02/29,11:20,0.504,0.762,0.479,0.953,0.685,0.308,0.550,0.516,�k��,4.9,��
2024/02/29,11:30,0.504,0.762,0.479,0.955,0.685,0.307,0.549,0.515,�k��,5.5,��
2024/02/29,11:40,0.505,0.763,0.478,0.953,0.684,0.308,0.550,0.517,�k��,6.2,��
2024/02/29,11:50,0.502,0.762,0.480,0.952,0.685,0.308,0.551,0.517,�k��,5.6,��
2024/02/29,12:00,0.503,0.764,0.479,0.953,0.685,0.308,0.552,0.517,�k��,4.9,��
2024/02/29,12:10,0.504,0.763,0.480,0.951,0.686,0.309,0.552,0.518,�k��,6.1,��
2024/02/29,12:20,0.502,0.763,0.481,0.953,0.684,0.309,0.552,0.517,�k��,5.7,��
2024/02/29,12:30,0.503,0.762,0.481,0.954,0.686,0.307,0.551,0.518,���k��,4.5,��
2024/02/29,12:40,0.503,0.763,0.480,0.954,0.685,0.309,0.551,0.517,���k��,4.0,��
2024/02/29,12:50,0.505,0.763,0.480,0.954,0.685,0.310,0.551,0.519,��,4.1,��
2024/02/29,13:00,0.502,0.765,0.479,0.954,0.685,0.308,0.550,0.518,���k��,3.6,��
2024/02/29,13:10,0.504,0.765,0.482,0.954,0.684,0.308,0.551,0.518,���k��,4.5,��
2024/02/29,13:20,0.504,0.764,0.479,0.954,0.684,0.308,0.551,0.517,���k��,3.5,��
2024/02/29,13:30,0.505,0.764,0.481,0.953,0.685,0.309,0.551,0.518,��,2.9,��
2024/02/29,13:40,0.504,0.765,0.481,0.953,0.686,0.310,0.552,0.517,���k��,3.4,��
2024/02/29,13:50,0.504,0.763,0.480,0.954,0.685,0.308,0.551,0.517,�k��,2.3,��
2024/02/29,14:00,0.507,0.764,0.481,0.953,0.685,0.309,0.552,0.518,��,3.3,��
2024/02/29,14:10,0.504,0.765,0.482,0.952,0.685,0.309,0.551,0.516,�k�k��,3.0,��
2024/02/29,14:20,0.504,0.765,0.480,0.954,0.686,0.309,0.551,0.516,�k�k��,2.9,��
2024/02/29,14:30,0.505,0.763,0.480,0.955,0.688,0.309,0.551,0.516,�k��,2.3,��
2024/02/29,14:40,0.506,0.763,0.480,0.954,0.685,0.310,0.551,0.515,��,2.8,��
2024/02/29,14:50,0.505,0.764,0.482,0.954,0.688,0.309,0.551,0.515,���k��,1.9,��
2024/02/29,15:00,0.504,0.766,0.481,0.953,0.686,0.309,0.550,0.516,�k�k��,2.6,��
2024/02/29,15:10,0.504,0.766,0.480,0.954,0.684,0.309,0.549,0.515,�k��,2.0,��
2024/02/29,15:20,0.505,0.766,0.482,0.955,0.686,0.310,0.551,0.517,��,0.9,��
2024/02/29,15:30,0.505,0.767,0.482,0.956,0.687,0.309,0.552,0.517,�쓌,1.5,��
2024/02/29,15:40,0.504,0.769,0.481,0.953,0.690,0.309,0.551,0.519,��,1.1,��
2024/02/29,15:50,0.505,0.768,0.482,0.956,0.688,0.309,0.551,0.518,��,1.9,��
2024/02/29,16:00,0.505,0.765,0.483,0.954,0.687,0.308,0.551,0.518,���쓌,2.2,��
2024/02/29,16:10,0.507,0.769,0.482,0.954,0.687,0.309,0.553,0.520,���쓌,2.2,��
2024/02/29,16:20,0.505,0.767,0.484,0.952,0.688,0.309,0.552,0.519,�쓌,1.5,��
2024/02/29,16:30,0.504,0.768,0.482,0.954,0.689,0.310,0.550,0.518,���쓌,1.8,��
2024/02/29,16:40,0.504,0.767,0.482,0.954,0.690,0.310,0.551,0.519,���쓌,2.0,��
2024/02/29,16:50,0.505,0.767,0.481,0.954,0.688,0.310,0.553,0.516,��쓌,2.9,��
2024/02/29,17:00,0.506,0.768,0.481,0.955,0.689,0.309,0.553,0.517,��쓌,2.3,��
2024/02/29,17:10,0.505,0.768,0.482,0.954,0.689,0.310,0.552,0.519,��,3.1,��
2024/02/29,17:20,0.505,0.767,0.481,0.955,0.690,0.310,0.553,0.518,��,3.4,��
2024/02/29,17:30,0.505,0.770,0.482,0.953,0.689,0.310,0.551,0.517,��,2.8,��
2024/02/29,17:40,0.506,0.768,0.481,0.955,0.689,0.311,0.552,0.518,��쓌,2.6,��
2024/02/29,17:50,0.506,0.768,0.481,0.954,0.688,0.311,0.552,0.516,��,3.6,��
2024/02/29,18:00,0.506,0.769,0.481,0.954,0.689,0.309,0.552,0.518,��,3.3,��
2024/02/29,18:10,0.506,0.767,0.481,0.957,0.690,0.310,0.553,0.517,��,4.1,��
2024/02/29,18:20,0.507,0.767,0.481,0.955,0.688,0.309,0.555,0.519,��,2.5,��
2024/02/29,18:30,0.506,0.768,0.483,0.954,0.688,0.310,0.553,0.518,��,2.8,��
2024/02/29,18:40,0.506,0.768,0.482,0.955,0.688,0.310,0.553,0.518,��,2.3,��
2024/02/29,18:50,0.505,0.769,0.482,0.955,0.688,0.310,0.553,0.518,��쐼,2.2,��
2024/02/29,19:00,0.506,0.767,0.480,0.955,0.688,0.311,0.552,0.517,��쐼,1.9,��
2024/02/29,19:10,0.505,0.769,0.481,0.955,0.689,0.310,0.552,0.517,��쐼,1.9,��
2024/02/29,19:20,0.505,0.767,0.480,0.954,0.690,0.311,0.552,0.518,��쐼,1.9,��
2024/02/29,19:30,0.506,0.769,0.482,0.955,0.689,0.310,0.554,0.518,��쐼,2.2,��
2024/02/29,19:40,0.505,0.768,0.482,0.955,0.690,0.309,0.554,0.518,��쐼,2.3,�L
2024/02/29,19:50,0.505,0.767,0.483,0.953,0.689,0.310,0.553,0.518,��쐼,2.2,�L
2024/02/29,20:00,0.508,0.768,0.483,0.956,0.689,0.310,0.553,0.519,�쐼,1.7,�L
2024/02/29,20:10,0.506,0.768,0.483,0.954,0.689,0.311,0.553,0.519,���쐼,1.5,�L
2024/02/29,20:20,0.506,0.766,0.483,0.956,0.689,0.311,0.554,0.519,�쐼,2.3,�L
2024/02/29,20:30,0.506,0.766,0.483,0.954,0.686,0.312,0.552,0.517,��쐼,2.5,�L
2024/02/29,20:40,0.507,0.764,0.481,0.955,0.688,0.312,0.554,0.518,��,3.7,�L
2024/02/29,20:50,0.505,0.762,0.482,0.954,0.686,0.311,0.552,0.518,��,2.6,�L
2024/02/29,21:00,0.503,0.761,0.480,0.953,0.685,0.311,0.553,0.517,�쐼,0.9,�L
2024/02/29,21:10,0.503,0.761,0.479,0.955,0.684,0.312,0.552,0.519,��,2.8,�L
2024/02/29,21:20,0.504,0.761,0.481,0.954,0.682,0.313,0.550,0.516,��,2.0,�L
2024/02/29,21:30,0.503,0.759,0.481,0.953,0.683,0.312,0.553,0.518,���쐼,1.7,�L
2024/02/29,21:40,0.502,0.756,0.478,0.951,0.681,0.312,0.552,0.515,��쐼,1.9,�L
2024/02/29,21:50,0.501,0.755,0.477,0.949,0.679,0.313,0.551,0.516,�쐼,2.0,�L
2024/02/29,22:00,0.500,0.755,0.478,0.949,0.677,0.311,0.551,0.515,�쐼,1.5,�L
2024/02/29,22:10,0.501,0.751,0.477,0.949,0.678,0.310,0.550,0.516,���쐼,1.7,�L
2024/02/29,22:20,0.501,0.751,0.477,0.945,0.675,0.311,0.550,0.517,�쐼,1.2,�L
2024/02/29,22:30,0.499,0.750,0.476,0.947,0.678,0.311,0.551,0.514,���쐼,1.5,�L
2024/02/29,22:40,0.499,0.753,0.475,0.946,0.677,0.311,0.550,0.514,��쐼,1.1,�L
2024/02/29,22:50,0.498,0.749,0.475,0.946,0.674,0.311,0.550,0.515,���쐼,1.1,�L
2024/02/29,23:00,0.497,0.749,0.475,0.942,0.674,0.309,0.549,0.514,��,2.3,�L
2024/02/29,23:10,0.497,0.749,0.474,0.945,0.675,0.310,0.548,0.514,��,2.0,�L
2024/02/29,23:20,0.498,0.746,0.476,0.943,0.673,0.310,0.549,0.515,���쐼,1.5,�L
2024/02/29,23:30,0.496,0.748,0.473,0.940,0.672,0.310,0.549,0.515,���쐼,1.4,�L
2024/02/29,23:40,0.495,0.745,0.473,0.940,0.671,0.311,0.547,0.513,���쐼,1.2,�L
2024/02/29,23:50,0.496,0.743,0.472,0.939,0.670,0.310,0.546,0.513,���k��,0.6,�L
